Location: Tofino
(49.1330°N, 125.9000°W)
Time: 11:03:27
(UTC-07:00)

Envisat - Visible Passes

Search period start: 16 July 2018 00:00
Search period end: 26 July 2018 00:00
Orbit: 764 x 766 km, 98.2° (Epoch: 16 July)

Date Brightness Start Highest point End Pass type
(mag) Time Alt. Az. Time Alt. Az. Time Alt. Az.
19 Jul 5.8 22:10:43 10° WSW 22:12:50 12° W 22:14:57 10° WNW visible
22 Jul 5.7 21:58:31 10° SW 22:01:30 16° W 22:04:30 10° NW visible
25 Jul 5.6 21:46:36 10° SW 21:50:11 19° W 21:53:48 10° NW visible
